Current weather by "City, St" or "zip code"  
 

Current Conditions: Oceano County Airport, CA

Fog/Mist


45.0 F

Last Updated on May 21 2022, 1:15 am PDT
Humidity: 100%
Wind Speed: N 0.0 mph
Barometer 29.89 in
Dewpoint: 44.6 F
Visibility: 4.00 mi
Precip: --
Heat Index: NA
Wind Chill: NA
Current conditions at:

Oceano County Airport, CA (KL52)

Lat: 35.10147 Lon: 120.62236

Local Radar Image active severe weather and emergency alerts image image weather storm and storm spotter reports image weather observation monitoring service image
Local
Radar
Active
Alerts
Storm Reports Obs
Monitoring

Sign-up For Email & Text Message Weather Alert Notification Services



Advertise Here

Observation History for Oceano County Airport, CA


Time Wind
(mph)
Vis
(mi)
Weather Precip (in) Temperature (F) Relative
Humidity
Wind
Chill
(F)
Heat
Index
(F)
Pressure
Air Dwpt altimeter
(in)
sea level
(mb)
Rmks
1:15 am PDT N 0.0 4.00 Fog/Mist -- 45.0 44.6 100% NA NA 29.89 M
12:55 am PDT N 0.0 4.00 Fog/Mist -- 45.0 44.6 100% NA NA 29.89 M
12:35 am PDT N 0.0 4.00 Fog/Mist -- 45.0 44.6 100% NA NA 29.89 M
11:55 pm PDT N 0.0 4.00 Fog/Mist -- 46.0 44.6 93% NA NA 29.89 M
11:35 pm PDT SE 3.5 4.00 Fog/Mist -- 48.0 44.6 87% NA NA 29.89 M
11:15 pm PDT SE 4.6 4.00 Fog/Mist -- 48.0 46.4 94% 46 NA 29.89 M
10:55 pm PDT N 0.0 4.00 Fog/Mist -- 48.0 46.4 94% NA NA 29.89 M
10:15 pm PDT SE 3.5 3.00 Fog/Mist -- 50.0 46.4 88% NA NA 29.88 M
9:55 pm PDT SE 3.5 4.00 Fog/Mist -- 50.0 46.4 88% NA NA 29.88 M
9:35 pm PDT N 0.0 4.00 Fog/Mist -- 50.0 46.4 88% NA NA 29.87 M
9:15 pm PDT SE 3.5 4.00 Fog/Mist -- 50.0 48.2 94% NA NA 29.87 M
8:55 pm PDT N 0.0 3.00 Fog/Mist -- 50.0 48.2 94% NA NA 29.86 M
8:15 pm PDT S 4.6 2.50 Fair with Haze -- 52.0 48.2 88% 51 NA 29.85 M
7:15 pm PDT 3.00 Fair with Haze -- 55.0 48.2 77% NA NA 29.84 M
6:55 pm PDT 4.6 3.00 Fair with Haze -- 55.0 50.0 82% 54 NA 29.84 M
6:35 pm PDT 3.00 Fair with Haze -- 55.0 50.0 82% NA NA 29.84 M
6:15 pm PDT W 8.1 2.50 Fair with Haze -- 55.0 50.0 82% 53 NA 29.83 M
5:55 pm PDT W 9.2 2.50 A Few Clouds with Haze -- 55.0 50.0 82% 52 NA 29.83 M
5:35 pm PDT W 9.2 2.50 Fair with Haze -- 57.0 50.0 77% 55 NA 29.83 M
5:15 pm PDT W 9.2 2.50 Fair with Haze -- 57.0 50.0 77% 55 NA 29.82 M
4:55 pm PDT W 8.1 2.50 Fair with Haze -- 57.0 50.0 77% 55 NA 29.82 M
2:55 pm PDT W 6.9 2.00 Fair with Haze -- 59.0 51.8 77% 58 NA 29.82 M
2:15 pm PDT W 8.1 2.50 Fair with Haze -- 59.0 50.0 72% 58 NA 29.82 M
1:55 pm PDT 5.8 2.50 Fair with Haze -- 59.0 50.0 72% 58 NA 29.82 M

Regional Weather Observation


Oceano County Airport, CA (KL52)

Fog/Mist
45.0 F

Paso Robles Municipal Airport, CA (KPRB)

Fair
50.0 F

Santa Maria Public Airport/Capt G Allan Hancock Field, CA (KSMX)

Fair
49.0 F

Lompoc, Vandenberg Air Force Base, CA (KVBG)

Fair
46.0 F

Lompoc, Lompoc Airport, CA (KLPC)

Fair
48.0 F

Santa Ynez, Santa Ynez Airport, CA (KIZA)

Overcast with Haze
50.0 F

Advertise Here


Advertise Here